Regional Weather Roundup
Issued by NWS Sterling, VA

Home | Current Version | Previous Version | Text Only | Print | Product List | Glossary On
Versions: 1 2 3 4 5 6 7 8 9 10 11 12 13 14 15 16 17 18 19 20 21 22 23 24 25 26 27 28 29 30 31 32 33 34 35 36 37 38 39 40 41 42 43 44 45 46 47 48 49 50
000
ASUS41 KLWX 221811
RWRLWX

REGIONAL WEATHER ROUNDUP
NATIONAL WEATHER SERVICE BALTIMORE MD/WASHINGTON DC
100 PM EST WED NOV 22 2017

Note: "FAIR" indicates few or no clouds below 12,000 feet
with no significant weather and/or obstructions to visibility.
 TC=TEMPERATURE CELSIUS

 * =Non NWS site. Station does not report precipitation (e.g. rain,
    snow, etc.), thunder, or fog.

DCZ001-MDZ009-015-VAZ040>042-051-053>054-221900-
WASHINGTON METRO

CITY           SKY/WX    TMP DP  RH WIND       PRES   REMARKS
WASHINGTON NAT MOSUNNY   55  33  43 NW16G28   30.02R
DULLES         MOSUNNY   51  30  44 NW22G28   30.03S
ANDREWS AFB    MOSUNNY   53  31  42 NW23G29   29.99R
FT BELVOIR     SUNNY     53  30  41 NW22G29   30.02R
COLLEGE PARK*  MOSUNNY   53  29  40 NW14G24   30.01S
LEESBURG*      PTSUNNY   54  32  43 N18G25    30.04S
MANASSAS*      MOSUNNY   53  30  41 NW16G26   30.03S
GAITHERSBURG*  PTSUNNY   50  29  44 NW8G18    30.03R

$$

MDZ006>007-011-014-221900-
BALTIMORE METRO

CITY           SKY/WX    TMP DP  RH WIND       PRES   REMARKS
BWI AIRPORT    MOSUNNY   53  32  44 W25G32    29.99R
MD SCIENCE CTR   N/A     54  30  40 MISG      29.99R
MARTIN STATE   MOSUNNY   55  36  47 W20G31    29.99R
ANNAPOLIS      SUNNY     54  36  50 NW21G29   29.98R
FORT MEADE*    MOSUNNY   54  32  43 NW16G28   30.03R

$$

MDZ012-015-019>023-221900-
MARYLAND EASTERN SHORE

CITY           SKY/WX    TMP DP  RH WIND       PRES   REMARKS
OCEAN CITY     MOSUNNY   59  44  57 NW17G23   29.92S
SALISBURY      SUNNY     59  40  49 N24       29.92S
CAMBRIDGE*     SUNNY     57  36  44 NW22G31   29.95S
EASTON*        MOSUNNY   57  36  44 NW21G29   29.99R

$$

MDZ017>025-221900-
SOUTHERN MARYLAND

CITY           SKY/WX    TMP DP  RH WIND       PRES   REMARKS
PATUXENT RIVER MOSUNNY   58  38  47 NW21      29.96R
ST INIGOES     SUNNY     60  36  40 NW14G23   29.95S
LEONARDTOWN*   SUNNY     57  34  41 NW14G22   29.98S

$$

MDZ003>005-221900-
NORTH CENTRAL MARYLAND

CITY           SKY/WX    TMP DP  RH WIND       PRES   REMARKS
FREDERICK*     PTSUNNY   52  27  37 NW23G30   30.06S
HAGERSTOWN APT PTSUNNY   46  29  51 NW20      30.05R
WESTMINSTER*   CLOUDY    48  30  49 NW13G24   30.02R

$$

MDZ501>502-221900-
WESTERN MARYLAND

CITY           SKY/WX    TMP DP  RH WIND       PRES   REMARKS
OAKLAND*       CLOUDY    28  28 100 NW8G16    30.03S VSB 1/2 WCI  20
CUMBERLAND*    NOT AVBL

$$

VAZ025>031-221900-
SHENANDOAH VALLEY

CITY           SKY/WX    TMP DP  RH WIND       PRES   REMARKS
WINCHESTER*    CLOUDY    43  28  56 NW13G21   30.06S
FRONT ROYAL*   MOSUNNY   48  28  46 NW9G18    30.05S
LURAY*         MOSUNNY   50  30  46 W13G18    30.05R
NEW MARKET*    SUNNY     48  24  39 NW15G23   30.06R
STAUNTON*      SUNNY     50  28  42 NW6       30.06S
WAYNESBORO*    SUNNY     51  26  37 NW8       30.02F

$$

WVZ021-048>050-054>055-221900-
EASTERN WEST VIRGINIA PANHANDLE

CITY           SKY/WX    TMP DP  RH WIND       PRES   REMARKS
MARTINSBURG    SUNNY     49  27  42 NW18G29   30.04S
PETERSBURG*    CLOUDY    42  26  53 NW13      30.13S

$$

VAZ036>039-050-221900-
CENTRAL FOOTHILLS

CITY           SKY/WX    TMP DP  RH WIND       PRES   REMARKS
CHARLOTTESVILL SUNNY     59  28  30 N12G17    30.01S
CULPEPER*      SUNNY     56  28  34 N15G21    30.03R
ORANGE*        SUNNY     55  30  38 NW10G21   30.01R
GORDONSVILLE*  SUNNY     58  31  35 NW10G16   30.00S
WARRENTON*     NOT AVBL

$$

VAZ055>057-221900-
NORTH AND CENTRAL PIEDMONT

CITY           SKY/WX    TMP DP  RH WIND       PRES   REMARKS
FREDERICKSBRG* MOSUNNY   57  36  45 N15       30.00S
STAFFORD*      SUNNY     55  33  43 NW13G23   30.05S

$$

NCZ024-NYZ072-PAZ021-071-VAZ022-071-221900-
OTHER REGIONAL OBSERVATIONS

CITY           SKY/WX    TMP DP  RH WIND       PRES   REMARKS
NEW YORK CITY  CLOUDY    52  40  63 NW9G25    29.90F
PHILADELPHIA   MOSUNNY   56  34  43 W17G26    29.93R
PITTSBURGH     CLOUDY    34  26  72 NW13      30.18F WCI  25
ROANOKE        MOSUNNY   53  29  39 W15       30.07F
RICHMOND       MOSUNNY   63  36  36 NW16G23   29.97F
RALEIGH        MOSUNNY   62  36  37 N13       30.01F

$$

ANZ530>537-221900-
MARINE OBSERVATIONS

STATION/POSITION TIME  TEMP    WIND        PRES
                       AIR SEA DIR/SP/G
                 (UTC) (F)     (DEG/KT/KT) (MB)
THOMAS PT LIGHT  1800   53 53  320/ 17/ 21   N/A
BALT KEY BRIDGE  1742   52     320/ 21/ 26 1014.9R
COVE POINT       1742   55     340/ 24/ 29 1015.1R
LEWISETTA        1742   57 52  320/ 19/ 24 1014.6R
SOLOMONS ISLAND  1742   56 54  320/ 13/ 18 1014.2R
PINEY POINT      1742          330/ 22/ 24   N/A

$$




USA.gov is the U.S. government's official web portal to all federal, state and local government web resources and services.